Regional Weather Roundup
Issued by NWS Northern Indiana

Home | Current Version | Previous Version | Graphics & Text | Print | Product List | Glossary On
Versions: 1 2 3 4 5 6 7 8 9 10 11 12 13 14 15 16 17 18 19 20 21 22 23 24 25 26 27 28 29 30 31 32 33 34 35 36 37 38 39 40 41 42 43 44 45 46 47 48 49 50
000
ASUS43 KIWX 280000
RWRIWX

KIWX WEATHER ROUNDUP
NATIONAL WEATHER SERVICE NORTHERN INDIANA
800 PM EDT THU AUG 27 2015

NOTE: "FAIR" INDICATES FEW OR NO CLOUDS BELOW 12,000 FEET WITH NO
SIGNIFICANT WEATHER AND/OR OBSTRUCTIONS TO VISIBILITY.

* THESE STATIONS ARE NOT UNDER NWS QUALITY CONTROL. THEY ALSO MAY NOT
  REPORT WEATHER SUCH AS PRECIPITATION OR FOG.

INZ001>027-280100-
NORTHERN INDIANA

CITY           SKY/WX    TMP DP  RH WIND       PRES   REMARKS
GARY*          MOCLDY    68  55  64 E5        30.14F
KNOX*          CLEAR     66  55  68 NE5       30.14S
SOUTH BEND     CLEAR     66  56  70 W3        30.16R
6HR MIN TEMP:  66; 6HR MAX TEMP:  71;

ELKHART*       CLEAR     66  55  68 CALM      30.17R
GOSHEN         CLEAR     65  57  75 NE3       30.15S
6HR MIN TEMP:  65; 6HR MAX TEMP:  72;

MONTICELLO*    CLEAR     69  60  74 CALM      30.13S
6HR MIN TEMP:  69; 6HR MAX TEMP:  75;

LOGANSPORT*    CLEAR     68  55  64 CALM      30.14S
WARSAW*        MOCLDY    64  57  77 CALM      30.15R
ANGOLA*        CLEAR     64  55  72 CALM      30.16S
FORT WAYNE     PTCLDY    69  56  62 SE3       30.15S
6HR MIN TEMP:  69; 6HR MAX TEMP:  75;

PERU/GRISSOM   CLEAR     69  58  68 E3        30.13S
6HR MIN TEMP:  69; 6HR MAX TEMP:  75;


$$
INZ028>050-280100-
CENTRAL INDIANA

CITY           SKY/WX    TMP DP  RH WIND       PRES   REMARKS
LAFAYETTE      PTCLDY    71  58  63 N5        30.11F
6HR MIN TEMP:  71; 6HR MAX TEMP:  78;

KOKOMO*        CLEAR     70  57  64 NE3       30.14S
6HR MIN TEMP:  70; 6HR MAX TEMP:  75;

MUNCIE*        CLEAR     67  57  70 NE5       30.14S
6HR MIN TEMP:  67; 6HR MAX TEMP:  74;

INDIANAPOLIS   MOCLDY    73  55  53 S5        30.11R
6HR MIN TEMP:  73; 6HR MAX TEMP:  78;


$$
MIZ043>046-050>051-056>058-064>065-071>073-077>080-280100-
SOUTHWEST LOWER MICHIGAN

CITY           SKY/WX    TMP DP  RH WIND       PRES   REMARKS
BATTLE CREEK   PTCLDY    66  54  65 E6        30.16F
6HR MIN TEMP:  66; 6HR MAX TEMP:  70;

BENTON HARBOR  CLEAR     64  57  78 CALM      30.15R
6HR MIN TEMP:  64; 6HR MAX TEMP:  71;

COLDWATER*     PTCLDY    63  56  78 E5        30.16S
6HR MIN TEMP:  63; 6HR MAX TEMP:  68;

HILLSDALE*     PTCLDY    64  57  79 NE3       30.17F
6HR MIN TEMP:  64; 6HR MAX TEMP:  68;

HOLLAND        CLEAR     65  57  75 W6        30.16S
6HR MIN TEMP:  65; 6HR MAX TEMP:  71;

GRAND RAPIDS   PTCLDY    65  57  75 S6        30.15F
6HR MIN TEMP:  65; 6HR MAX TEMP:  71;

KALAMAZOO      MOCLDY    66  55  67 E3        30.16S
6HR MIN TEMP:  66; 6HR MAX TEMP:  71;

STURGIS*       CLOUDY    64  59  82 E3        30.16R
THREE RIVERS*  FAIR      65  57  73 SE3       30.16R
6HR MIN TEMP:  65; 6HR MAX TEMP:  70;


$$
OHZ001>008-015>018-024>025-280100-
NORTHWEST OHIO

CITY           SKY/WX    TMP DP  RH WIND       PRES   REMARKS
DEFIANCE       MOCLDY    69  56  62 N6        30.15F
6HR MIN TEMP:  69; 6HR MAX TEMP:  73;

FINDLAY        CLEAR     70  56  61 NE12      30.14F
6HR MIN TEMP:  70; 6HR MAX TEMP:  76;

TOLEDO EXPRESS CLEAR     66  55  67 N5        30.15F
6HR MIN TEMP:  66; 6HR MAX TEMP:  72;

TOLEDO METCALF CLEAR     67  53  61 NE6       30.17F
6HR MIN TEMP:  67; 6HR MAX TEMP:  73;

LIMA           CLEAR     65  59  81 NE3       30.14F
6HR MIN TEMP:  65; 6HR MAX TEMP:  74;


$$
AND FOR LAKE MICHIGAN COASTAL AND OPEN LAKE BUOY OBSERVATIONS

STATION/POSITION TEMP    WIND        PRES    VSBY  WAVE
                 AIR SEA DIR/SP/G                  HT/PER
                 (F)     (DEG/KT/KT) (MB)    (MI)  (FT/S)
CALUMET HARBOR    67      50/  7/  8   N/A
MICHIGAN CITY     69     350/  3/  4   N/A
BURNS HARBOR      70      60/  5/  6 1021.3R
SAINT JOSEPH      67     320/  4/  6 1021.7R
SOUTH LAKE BUOY   66 68  180/  6/  6 1020.6F         0
4 MI NW BRIDGMAN  67 72   10/  4/  6   N/A           1
MICHIGAN CITY     68 72   CALM  /  2   N/A           0

$$
&&



USA.gov is the U.S. government's official web portal to all federal, state and local government web resources and services.